Terminal Aerodrome Forecast
Issued by NWS

Home | Current Version | Previous Version | Graphics & Text | Print | Product List | Glossary On
Versions: 1 2 3 4 5 6 7 8 9 10 11 12 13 14 15 16 17 18 19 20 21 22 23 24 25 26 27 28 29 30
000
FTUS43 KLOT 012335
TAFORD
TAF
KORD 012335Z 0200/0306 03014KT 6SM -SHRA BR OVC009
     FM020130 03012KT 4SM SHRA VCTS OVC006CB
     FM020330 03011KT 5SM BR OVC004
     FM020800 02009KT P6SM OVC008
     FM021200 03011KT P6SM OVC012
     FM021500 04011KT P6SM OVC025
     FM021800 04012KT P6SM BKN035 OVC050
     FM030000 04007KT P6SM BKN050=

USA.gov is the U.S. government's official web portal to all federal, state and local government web resources and services.